| time (UTC) | temp F | wind direction | speed MPH | gust MPH | rain 1hr in | rain 24hr in | rain mn in | humidity % | barometer mb |
| 20260504044535 | 60 | 223 | 1.0 | 5.0 | 0.00 | 0.06 | 0.06 | 63 | 1006.2 |
| 20260504043025 | 60 | 259 | 3.0 | 8.0 | 0.00 | 0.06 | 0.06 | 63 | 1006.2 |
| 20260504041524 | 60 | 229 | 1.0 | 7.0 | 0.00 | 0.06 | 0.06 | 64 | 1006.1 |
| 20260504040024 | 60 | 201 | 3.0 | 7.0 | 0.00 | 0.06 | 0.06 | 63 | 1006.0 |
| 20260504034524 | 60 | 167 | 5.0 | 9.0 | 0.00 | 0.06 | 0.06 | 62 | 1006.1 |
| 20260504033023 | 60 | 186 | 3.0 | 7.0 | 0.00 | 0.06 | 0.06 | 62 | 1006.4 |
| 20260504031528 | 60 | 200 | 3.0 | 9.0 | 0.00 | 0.06 | 0.06 | 60 | 1006.4 |
| 20260504030023 | 61 | 194 | 2.0 | 7.0 | 0.00 | 0.06 | 0.06 | 58 | 1006.6 |
| 20260504024521 | 61 | 209 | 2.0 | 7.0 | 0.00 | 0.06 | 0.06 | 57 | 1006.5 |
| 20260504023022 | 62 | 190 | 2.0 | 6.0 | 0.00 | 0.06 | 0.06 | 55 | 1006.5 |
| 20260504021520 | 62 | 212 | 2.0 | 5.0 | 0.00 | 0.06 | 0.06 | 55 | 1006.4 |
| 20260504020019 | 63 | 202 | 2.0 | 6.0 | 0.00 | 0.06 | 0.06 | 54 | 1006.3 |
| 20260504014522 | 63 | 218 | 2.0 | 6.0 | 0.00 | 0.06 | 0.06 | 54 | 1006.2 |
| 20260504013025 | 63 | 194 | 2.0 | 5.0 | 0.00 | 0.06 | 0.06 | 54 | 1006.1 |
| 20260504011518 | 64 | 194 | 2.0 | 5.0 | 0.00 | 0.06 | 0.06 | 53 | 1006.1 |
| 20260504010017 | 64 | 202 | 2.0 | 5.0 | 0.00 | 0.06 | 0.06 | 52 | 1006.1 |
| 20260504004518 | 65 | 196 | 2.0 | 6.0 | 0.00 | 0.06 | 0.06 | 50 | 1006.1 |
| 20260504003017 | 66 | 194 | 2.0 | 7.0 | 0.00 | 0.06 | 0.06 | 49 | 1006.0 |
| 20260504001518 | 67 | 240 | 3.0 | 9.0 | 0.00 | 0.06 | 0.06 | 48 | 1006.1 |
| 20260504000015 | 67 | 350 | 4.0 | 12.0 | 0.00 | 0.06 | 0.06 | 47 | 1006.0 |
| 20260503234514 | 68 | 198 | 3.0 | 9.0 | 0.00 | 0.06 | 0.06 | 47 | 1006.1 |
| 20260503233014 | 68 | 194 | 3.0 | 12.0 | 0.00 | 0.06 | 0.06 | 46 | 1006.2 |
| 20260503231519 | 68 | 221 | 5.0 | 13.0 | 0.00 | 0.06 | 0.06 | 45 | 1006.2 |
| 20260503230011 | 68 | 212 | 6.0 | 16.0 | 0.00 | 0.06 | 0.06 | 44 | 1006.3 |
| 20260503224509 | 69 | 217 | 3.0 | 14.0 | 0.00 | 0.06 | 0.06 | 44 | 1006.4 |
| 20260503223008 | 69 | 234 | 6.0 | 15.0 | 0.00 | 0.06 | 0.06 | 43 | 1006.6 |
| 20260503221507 | 69 | 225 | 2.0 | 12.0 | 0.00 | 0.06 | 0.06 | 44 | 1006.6 |
| 20260503220006 | 69 | 208 | 3.0 | 16.0 | 0.00 | 0.06 | 0.06 | 43 | 1006.7 |
| 20260503214508 | 69 | 190 | 7.0 | 19.0 | 0.00 | 0.06 | 0.06 | 42 | 1006.7 |
| 20260503213002 | 68 | 218 | 6.0 | 20.0 | 0.00 | 0.06 | 0.06 | 42 | 1006.9 |
| 20260503211601 | 68 | 5 | 5.0 | 16.0 | 0.00 | 0.06 | 0.06 | 43 | 1007.1 |
| 20260503210056 | 67 | 198 | 5.0 | 17.0 | 0.00 | 0.06 | 0.06 | 43 | 1007.5 |
| 20260503204558 | 67 | 219 | 7.0 | 21.0 | 0.00 | 0.06 | 0.06 | 44 | 1007.7 |
| 20260503203052 | 66 | 176 | 6.0 | 23.0 | 0.00 | 0.06 | 0.06 | 45 | 1008.2 |
| 20260503201549 | 67 | 194 | 7.0 | 19.0 | 0.00 | 0.06 | 0.06 | 43 | 1008.5 |
| 20260503200046 | 66 | 205 | 6.0 | 21.0 | 0.00 | 0.06 | 0.06 | 41 | 1008.4 |
| 20260503194546 | 64 | 232 | 5.0 | 14.0 | 0.00 | 0.06 | 0.06 | 44 | 1008.8 |
| 20260503193052 | 64 | 230 | 10.0 | 25.0 | 0.00 | 0.06 | 0.06 | 43 | 1009.1 |
| 20260503191538 | 64 | 211 | 11.0 | 19.0 | 0.00 | 0.06 | 0.06 | 45 | 1009.3 |
| 20260503190044 | 63 | 193 | 9.0 | 17.0 | 0.00 | 0.06 | 0.06 | 52 | 1009.3 |
| 20260503184531 | 61 | 198 | 12.0 | 22.0 | 0.00 | 0.06 | 0.06 | 54 | 1009.5 |
| 20260503183026 | 59 | 185 | 9.0 | 20.0 | 0.00 | 0.06 | 0.06 | 60 | 1009.9 |
| 20260503181523 | 58 | 209 | 8.0 | 24.0 | 0.00 | 0.06 | 0.06 | 65 | 1010.3 |
| 20260503180033 | 56 | 188 | 5.0 | 12.0 | 0.00 | 0.06 | 0.06 | 75 | 1010.6 |
| 20260503174513 | 53 | 149 | 4.0 | 7.0 | 0.00 | 0.06 | 0.06 | 84 | 1011.2 |
| 20260503173010 | 49 | 194 | 1.0 | 6.0 | 0.00 | 0.06 | 0.06 | 87 | 1011.7 |
| 20260503171509 | 48 | 184 | 0.0 | 7.0 | 0.00 | 0.06 | 0.06 | 88 | 1012.1 |
| 20260503150106 | 50 | 211 | 1.0 | 7.0 | 0.03 | 0.03 | 0.03 | 72 | 1015.2 |
| 20260503081512 | 47 | 207 | 0.0 | 4.0 | 0.00 | 0.00 | 0.00 | 57 | 1015.7 |
| 20260503071506 | 48 | 184 | 1.0 | 6.0 | 0.00 | 0.00 | 0.00 | 52 | 1015.8 |
| 20260503070104 | 48 | 207 | 1.0 | 4.0 | 0.00 | 0.00 | 0.00 | 52 | 1015.8 |
| 20260503054551 | 48 | 194 | 2.0 | 7.0 | 0.00 | 0.00 | 0.00 | 50 | 1016.6 |
| 20260503053048 | 49 | 234 | 1.0 | 4.0 | 0.00 | 0.00 | 0.00 | 49 | 1016.7 |
| 20260503051646 | 49 | 199 | 1.0 | 7.0 | 0.00 | 0.00 | 0.00 | 48 | 1016.8 |
| 20260503050043 | 49 | 198 | 1.0 | 6.0 | 0.00 | 0.00 | 0.00 | 47 | 1016.9 |